STARLINK-31862, 59786

Orbit data source: Space-Track

STARLINK-31862, 59786 is a payload satellite owned by SpaceX/Seattle (US) in LEO that was launched on Sat, 18 May 2024 UTC via an FALCON 9 launch vehicle from the Air Force Eastern Test Range (AFETR). Payload-class satellites include a variety of spacecraft equipped with specific instruments for various scientific and technological missions. These include communications satellites like Starlink; space stations such as the ISS; scientific satellites like the Hubble; Earth observation satellites from companies like Planet Labs, Umbra, and HawkEye 360; GPS; miniature CubeSats for education and research; and military/defense satellites.

Loading next visibility...
Identifier
59786, 2024-093E
Orbit
LEO
Country
Flag of USUS
Related business
Manufacturer
SpaceX/Seattle
Mission
Operational spacecraft
Bus & Motor
STARLINK V2M, Unknown motor
Mass
730 kg wet, ~700 kg dry
Launch date (UTC)
2024-05-18 (1 year ago)
Launch vehicle
FALCON 9
Launch site
Air Force Eastern Test Range (AFETR)
Object type
Payload
Rocket body
Debris
Shape & HBR
Unknown
Radar Cross Section
Large (>1 m²)

Expand to show TLE details & history
Last TLE update: 21 hours ago

TLE from 21 hours ago
0 STARLINK-31862
1 59786U 24093E   25257.95936094  .00000402  00000-0  24123-4 0  9991
2 59786  43.0027 120.9945 0001657 278.8300  81.2364 15.27579760 75825
Epoch: 2025-09-14T23:01Z
TLE epoch observation values (Epoch: 2025-09-14T23:01:28.785Z)
Latitude
-0.00001°
Longitude
141.45367°
Altitude
482.653 km
Speed
7.626 km/s
True Right ascension
08h 03m 58s
True Declination
0° 00' 00"
Sunlit
Object was in daylight at epoch
Visualization orbit readout
Latitude
Unknown
Longitude
Unknown
Altitude
Unknown
Speed
Unknown
Apparent Right ascension
Unknown
Apparent Declination
Unknown
Sunlit
N/A
Visualization observer readout
Local Sidereal Time
12:54:10
Azimuth
Unknown
Elevation
Unknown
Doppler factor
Unknown
Orbital elements
Apogee altitude
486.132 km
Perigee altitude
483.857 km
Semi-major axis
6,863.132 km
Eccentricity
0.00017
Inclination
43.0027°
RAAN
120.9945°
Arg. of periapsis
278.83°
True anomaly
81.25517°
Mean anomaly
81.2364°
Eccentric anomaly
81.24578°
Mean motion
3.81733 °/min
Orbital period
94.31 mins
BSTAR
0.000024123
Loading maneuver chart data...
Computing Atmospheric mass density...
Loading historical data...
Loading historical data...
Loading historical data...
Loading historical data...
Loading historical data...
Loading historical data...
Loading historical data...

Documentation

Showing up to 5 results
|